Regional Weather Roundup
Issued by NWS

Home | Current Version | Previous Version | Graphics & Text | Print | Product List | Glossary On
Versions: 1 2 3 4 5 6 7 8 9 10 11 12 13 14 15 16 17 18 19 20 21 22 23 24 25 26 27 28 29 30 31 32 33 34 35 36 37 38 39 40 41 42 43 44 45 46 47 48 49 50
000
ASUS45 KBOU 030407
RWRCO

WEATHER ROUNDUP FOR COLORADO
NATIONAL WEATHER SERVICE DENVER/BOULDER CO
1000 PM MDT TUE JUN 02 2015

NOTE: "FAIR" INDICATES FEW OR NO CLOUDS BELOW 12000 FEET WITH NO
SIGNIFICANT WEATHER AND/OR OBSTRUCTIONS TO VISIBILITY.

COZ001>005-013-030-031-030500-
...NORTHWEST COLORADO...

CITY           SKY/WX    TMP DP  RH WIND       PRES   REMARKS
CRAIG          CLEAR     54  38  54 CALM      30.02R
HAYDEN         CLEAR     61  28  29 CALM      30.04R
MEEKER         CLEAR     58  35  42 CALM      30.03R
MOUNT WERNER   NOT AVBL
STEAMBOAT SPGS CLEAR     57  34  42 SE10      30.07R
WALDEN         CLEAR     50  32  50 SE6       30.16R
$$

COZ006>008-011-030500-
...WEST CENTRAL VALLEYS...

CITY           SKY/WX    TMP DP  RH WIND       PRES   REMARKS
GRAND JUNCTION CLEAR     64  24  21 NE3       29.91R
MONTROSE       CLEAR     67  24  19 S7        30.03R
EAGLE          PTCLDY    70  34  26 E6        30.07R
RIFLE          CLEAR     61  35  37 SE5       29.98R
DELTA          CLEAR     74  19  12 W3        29.96R
NUCLA          CLEAR     68  19  15 SE6       30.05S
$$

COZ017>023-064>068-030500-
...SOUTHWEST COLORADO...

CITY           SKY/WX    TMP DP  RH WIND       PRES   REMARKS
DURANGO        PTCLDY    58  34  40 N12       30.09R
CORTEZ         CLEAR     58  32  37 E8        30.03S
PAGOSA SPRINGS PTCLDY    55  27  34 CALM      30.18R
TELLURIDE      PTCLDY    57  21  24 CALM      30.29R
WOLF CREEK PAS NOT AVBL
$$

COZ009-010-012-014-032>034-037-058>063-030500-
...CENTRAL COLORADO...

CITY           SKY/WX    TMP DP  RH WIND       PRES   REMARKS
ASPEN          PTCLDY    54  30  40 SW9       30.16R
BUENA VISTA    PTCLDY    60  19  19 W15       30.14R
COPPER MTN     PTCLDY    46  14  27 W12       30.45R
BERTHOUD PASS  FAIR      41  32  70 W17       30.47F
COTTONWOOD PAS NOT AVBL
GUNNISON       CLEAR     55  25  30 CALM      30.19R
KREMMLING      CLEAR     54  32  43 CALM      30.12R
LEADVILLE      PTCLDY    44  22  41 NE8       30.29R
MONARCH PASS   CLEAR     45  18  33 W20       30.55R
SALIDA         PTCLDY    63  24  22 NW6       30.19R
SUNLIGHT       PTCLDY    48  19  32 CALM      30.37R
WILKERSON PASS PTCLDY    52  10  19 NW10G18   30.40S
$$

COZ069>075-030500-
...SAN LUIS VALLEY/SANGRE DE CRISTO MOUNTAINS...

CITY           SKY/WX    TMP DP  RH WIND       PRES   REMARKS
ALAMOSA        CLEAR     55  26  32 W9        30.14R
LA VETA PASS   CLEAR    N/A N/A N/A MISG      30.31S
SAGUACHE       CLEAR     61  21  21 NW12      30.16R
$$

COZ035-036-038>040-030500-
...NORTHERN COLORADO FRONT RANGE...

CITY           SKY/WX    TMP DP  RH WIND       PRES   REMARKS
DENVER INTL AP PTCLDY    65  44  46 NE8       29.89R
DMNS CITY PARK   N/A     70  41  34 N2        29.91R
AURORA         PTCLDY    60  48  63 SW2       29.92R
FRONT RANGE AP NOT AVBL
ERIE MUNI ARPT CLEAR     64  48  56 CALM      29.90R
BOULDER MUN AP CLEAR     70  36  28 SW7       29.91R
CENTENNIAL     CLEAR     67  43  41 W5        29.93R
BROOMFIELD     CLEAR     75  39  27 W13       29.94R
FORT COLLINS   CLEAR     66  41  39 NW9       29.91R
LONGMONT       CLEAR     63  46  54 W5        29.91R
$$

COZ041-046-047-076>085-087-088-030500-
...PIKES PEAK/PALMER DIVIDE AND SOUTHERN FOOTHILLS...

CITY           SKY/WX    TMP DP  RH WIND       PRES   REMARKS
COLO. SPRINGS  PTCLDY    68  45  43 NE3       29.99R
A. F. ACADEMY  CLEAR     61  42  49 N7        30.00R
ELLICOTT       CLEAR    N/A N/A N/A SE8       29.96R
FALCON         CLEAR     63  44  48 W3        30.05R
FORT CARSON    NOT AVBL
LIMON          CLEAR     59  53  80 CALM      29.92R
MONUMENT HILL  CLEAR     59  45  58 E9        30.05R
TRINIDAD       CLEAR     62  37  39 W12       29.97R
$$

COZ042>045-048>051-090-091-030500-
...NORTHEAST COLORADO...

CITY           SKY/WX    TMP DP  RH WIND       PRES   REMARKS
GREELEY ARPT   CLEAR     64  50  59 NW12      29.88R
AKRON          CLEAR     68  58  70 SE7       29.85S
BURLINGTON     CLEAR     67  53  61 S9        29.84R
WRAY           CLEAR     72  60  66 CALM      29.80S
STERLING       CLEAR     70  59  68 CALM      29.80S
HOLYOKE        NOT AVBL
FORT MORGAN    CLEAR     73  51  46 SE10      29.85R
$$

COZ086-089-092>099-030500-
...SOUTHEAST COLORADO...

CITY           SKY/WX    TMP DP  RH WIND       PRES   REMARKS
PUEBLO         CLEAR     68  52  56 CALM      29.84R
LA JUNTA       CLEAR     76  51  41 SE8       29.81R
LAMAR          CLEAR     74  55  51 S16       29.77S
SPRINGFIELD      N/A     70  59  68 S16       29.88R
$$


USA.gov is the U.S. government's official web portal to all federal, state and local government web resources and services.